owner,sensor,date,latitude,longitude,vertical_datum,mass_concentration_of_oxygen_in_sea_water,qcFlag 
SCCF RECON,ioos:station:SCCF:12:1,2011-08-01T00:00:00Z,26.4966,-82.1479,1.942,-9999.0,1111122 
SCCF RECON,ioos:station:SCCF:12:1,2011-08-01T01:00:00Z,26.4966,-82.1479,1.831,-9999.0,1111122 
SCCF RECON,ioos:station:SCCF:12:1,2011-08-01T02:00:00Z,26.4966,-82.1479,1.82,-9999.0,1111122 
SCCF RECON,ioos:station:SCCF:12:1,2011-08-01T03:00:00Z,26.4966,-82.1479,1.92,-9999.0,1111122 
SCCF RECON,ioos:station:SCCF:12:1,2011-08-01T04:00:00Z,26.4966,-82.1479,2.12,-9999.0,1111122 
SCCF RECON,ioos:station:SCCF:12:1,2011-08-01T05:00:00Z,26.4966,-82.1479,2.27,-9999.0,1111122 
SCCF RECON,ioos:station:SCCF:12:1,2011-08-01T06:00:00Z,26.4966,-82.1479,2.385,-9999.0,1111122 
SCCF RECON,ioos:station:SCCF:12:1,2011-08-01T07:00:00Z,26.4966,-82.1479,2.46,-9999.0,1111122 
SCCF RECON,ioos:station:SCCF:12:1,2011-08-01T08:00:00Z,26.4966,-82.1479,2.46,-9999.0,1111122 
SCCF RECON,ioos:station:SCCF:12:1,2011-08-01T09:00:00Z,26.4966,-82.1479,2.38,-9999.0,1111122 
SCCF RECON,ioos:station:SCCF:12:1,2011-08-01T10:00:00Z,26.4966,-82.1479,2.255,-9999.0,1111122 
SCCF RECON,ioos:station:SCCF:12:1,2011-08-01T11:00:00Z,26.4966,-82.1479,2.151,-9999.0,1111122 
SCCF RECON,ioos:station:SCCF:12:1,2011-08-01T12:00:00Z,26.4966,-82.1479,2.09,-9999.0,1111122 
SCCF RECON,ioos:station:SCCF:12:1,2011-08-01T13:00:00Z,26.4966,-82.1479,2.07,-9999.0,1111122 
SCCF RECON,ioos:station:SCCF:12:1,2011-08-01T14:00:00Z,26.4966,-82.1479,2.128,-9999.0,1111122 
SCCF RECON,ioos:station:SCCF:12:1,2011-08-01T15:00:00Z,26.4966,-82.1479,2.268,-9999.0,1111122 
SCCF RECON,ioos:station:SCCF:12:1,2011-08-01T16:00:00Z,26.4966,-82.1479,2.439,-9999.0,1111122 
SCCF RECON,ioos:station:SCCF:12:1,2011-08-01T17:00:00Z,26.4966,-82.1479,2.56,-9999.0,1111122 
SCCF RECON,ioos:station:SCCF:12:1,2011-08-01T18:00:00Z,26.4966,-82.1479,2.63,-9999.0,1111122 
SCCF RECON,ioos:station:SCCF:12:1,2011-08-01T19:00:00Z,26.4966,-82.1479,2.63,-9999.0,1111122 
SCCF RECON,ioos:station:SCCF:12:1,2011-08-01T20:00:00Z,26.4966,-82.1479,2.56,-9999.0,1111122 
SCCF RECON,ioos:station:SCCF:12:1,2011-08-01T21:00:00Z,26.4966,-82.1479,2.44,-9999.0,1111122 
SCCF RECON,ioos:station:SCCF:12:1,2011-08-01T22:00:00Z,26.4966,-82.1479,2.29,-9999.0,1111122 
SCCF RECON,ioos:station:SCCF:12:1,2011-08-01T23:00:00Z,26.4966,-82.1479,2.145,-9999.0,1111122 
SCCF RECON,ioos:station:SCCF:12:1,2011-08-02T00:00:00Z,26.4966,-82.1479,2.014,-9999.0,1111122 
SCCF RECON,ioos:station:SCCF:12:1,2011-08-02T01:00:00Z,26.4966,-82.1479,1.9,-9999.0,1111122 
SCCF RECON,ioos:station:SCCF:12:1,2011-08-02T02:00:00Z,26.4966,-82.1479,1.82,-9999.0,1111122 
SCCF RECON,ioos:station:SCCF:12:1,2011-08-02T03:00:00Z,26.4966,-82.1479,1.83,-9999.0,1111122 
SCCF RECON,ioos:station:SCCF:12:1,2011-08-02T04:00:00Z,26.4966,-82.1479,2.0,-9999.0,1111122 
SCCF RECON,ioos:station:SCCF:12:1,2011-08-02T05:00:00Z,26.4966,-82.1479,2.18,-9999.0,1111122 
SCCF RECON,ioos:station:SCCF:12:1,2011-08-02T06:00:00Z,26.4966,-82.1479,2.317,-9999.0,1111122 
SCCF RECON,ioos:station:SCCF:12:1,2011-08-02T07:00:00Z,26.4966,-82.1479,2.41,-9999.0,1111122 
SCCF RECON,ioos:station:SCCF:12:1,2011-08-02T08:00:00Z,26.4966,-82.1479,2.44,-9999.0,1111122 
SCCF RECON,ioos:station:SCCF:12:1,2011-08-02T09:00:00Z,26.4966,-82.1479,2.39,-9999.0,1111122 
SCCF RECON,ioos:station:SCCF:12:1,2011-08-02T10:00:00Z,26.4966,-82.1479,2.28,-9999.0,1111122 
SCCF RECON,ioos:station:SCCF:12:1,2011-08-02T11:00:00Z,26.4966,-82.1479,2.165,-9999.0,1111122 
SCCF RECON,ioos:station:SCCF:12:1,2011-08-02T12:00:00Z,26.4966,-82.1479,2.07,-9999.0,1111122 
SCCF RECON,ioos:station:SCCF:12:1,2011-08-02T13:00:00Z,26.4966,-82.1479,2.0,-9999.0,1111122 
SCCF RECON,ioos:station:SCCF:12:1,2011-08-02T14:00:00Z,26.4966,-82.1479,1.952,-9999.0,1111122 
SCCF RECON,ioos:station:SCCF:12:1,2011-08-02T15:00:00Z,26.4966,-82.1479,2.02,-9999.0,1111122 
SCCF RECON,ioos:station:SCCF:12:1,2011-08-02T16:00:00Z,26.4966,-82.1479,2.19,-9999.0,1111122 
SCCF RECON,ioos:station:SCCF:12:1,2011-08-02T17:00:00Z,26.4966,-82.1479,2.37,-9999.0,1111122 
SCCF RECON,ioos:station:SCCF:12:1,2011-08-02T18:00:00Z,26.4966,-82.1479,2.474,-9999.0,1111122 
SCCF RECON,ioos:station:SCCF:12:1,2011-08-02T19:00:00Z,26.4966,-82.1479,2.53,-9999.0,1111122 
SCCF RECON,ioos:station:SCCF:12:1,2011-08-02T20:00:00Z,26.4966,-82.1479,2.51,-9999.0,1111122 
SCCF RECON,ioos:station:SCCF:12:1,2011-08-02T21:00:00Z,26.4966,-82.1479,2.44,-9999.0,1111122 
SCCF RECON,ioos:station:SCCF:12:1,2011-08-02T22:00:00Z,26.4966,-82.1479,2.35,-9999.0,1111122 
SCCF RECON,ioos:station:SCCF:12:1,2011-08-02T23:00:00Z,26.4966,-82.1479,2.228,-9999.0,1111122 
SCCF RECON,ioos:station:SCCF:12:1,2011-08-03T00:00:00Z,26.4966,-82.1479,2.102,-9999.0,1111122 
SCCF RECON,ioos:station:SCCF:12:1,2011-08-03T01:00:00Z,26.4966,-82.1479,1.99,-9999.0,1111122 
SCCF RECON,ioos:station:SCCF:12:1,2011-08-03T02:00:00Z,26.4966,-82.1479,1.901,-9999.0,1111122 
SCCF RECON,ioos:station:SCCF:12:1,2011-08-03T03:00:00Z,26.4966,-82.1479,1.871,-9999.0,1111122 
SCCF RECON,ioos:station:SCCF:12:1,2011-08-03T04:00:00Z,26.4966,-82.1479,1.966,-9999.0,1111122 
SCCF RECON,ioos:station:SCCF:12:1,2011-08-03T05:00:00Z,26.4966,-82.1479,2.159,-9999.0,1111122 
SCCF RECON,ioos:station:SCCF:12:1,2011-08-03T06:00:00Z,26.4966,-82.1479,2.315,-9999.0,1111122 
SCCF RECON,ioos:station:SCCF:12:1,2011-08-03T07:00:00Z,26.4966,-82.1479,2.42,-9999.0,1111122 
SCCF RECON,ioos:station:SCCF:12:1,2011-08-03T08:00:00Z,26.4966,-82.1479,2.47,-9999.0,1111122 
SCCF RECON,ioos:station:SCCF:12:1,2011-08-03T09:00:00Z,26.4966,-82.1479,2.45,-9999.0,1111122 
SCCF RECON,ioos:station:SCCF:12:1,2011-08-03T10:00:00Z,26.4966,-82.1479,2.36,-9999.0,1111122 
SCCF RECON,ioos:station:SCCF:12:1,2011-08-03T11:00:00Z,26.4966,-82.1479,2.25,-9999.0,1111122 
SCCF RECON,ioos:station:SCCF:12:1,2011-08-03T12:00:00Z,26.4966,-82.1479,2.146,-9999.0,1111122 
SCCF RECON,ioos:station:SCCF:12:1,2011-08-03T13:00:00Z,26.4966,-82.1479,2.05,-9999.0,1111122 
SCCF RECON,ioos:station:SCCF:12:1,2011-08-03T14:00:00Z,26.4966,-82.1479,1.964,-9999.0,1111122 
SCCF RECON,ioos:station:SCCF:12:1,2011-08-03T15:00:00Z,26.4966,-82.1479,1.941,-9999.0,1111122 
SCCF RECON,ioos:station:SCCF:12:1,2011-08-03T16:00:00Z,26.4966,-82.1479,2.001,-9999.0,1111122 
SCCF RECON,ioos:station:SCCF:12:1,2011-08-03T17:00:00Z,26.4966,-82.1479,2.137,-9999.0,1111122 
SCCF RECON,ioos:station:SCCF:12:1,2011-08-03T18:00:00Z,26.4966,-82.1479,2.28,-9999.0,1111122 
SCCF RECON,ioos:station:SCCF:12:1,2011-08-03T19:00:00Z,26.4966,-82.1479,2.38,-9999.0,1111122 
SCCF RECON,ioos:station:SCCF:12:1,2011-08-03T20:00:00Z,26.4966,-82.1479,2.429,-9999.0,1111122 
SCCF RECON,ioos:station:SCCF:12:1,2011-08-03T21:00:00Z,26.4966,-82.1479,2.446,-9999.0,1111122 
SCCF RECON,ioos:station:SCCF:12:1,2011-08-03T22:00:00Z,26.4966,-82.1479,2.4,-9999.0,1111122 
SCCF RECON,ioos:station:SCCF:12:1,2011-08-03T23:00:00Z,26.4966,-82.1479,2.301,-9999.0,1111122 
SCCF RECON,ioos:station:SCCF:12:1,2011-08-04T00:00:00Z,26.4966,-82.1479,2.198,-9999.0,1111122 
SCCF RECON,ioos:station:SCCF:12:1,2011-08-04T01:00:00Z,26.4966,-82.1479,2.09,-9999.0,1111122 
SCCF RECON,ioos:station:SCCF:12:1,2011-08-04T02:00:00Z,26.4966,-82.1479,2.004,-9999.0,1111122 
SCCF RECON,ioos:station:SCCF:12:1,2011-08-04T03:00:00Z,26.4966,-82.1479,1.96,-9999.0,1111122 
SCCF RECON,ioos:station:SCCF:12:1,2011-08-04T04:00:00Z,26.4966,-82.1479,1.98,-9999.0,1111122 
SCCF RECON,ioos:station:SCCF:12:1,2011-08-04T05:00:00Z,26.4966,-82.1479,2.1,-9999.0,1111122 
SCCF RECON,ioos:station:SCCF:12:1,2011-08-04T06:00:00Z,26.4966,-82.1479,2.29,-9999.0,1111122 
SCCF RECON,ioos:station:SCCF:12:1,2011-08-04T07:00:00Z,26.4966,-82.1479,2.41,-9999.0,1111122 
SCCF RECON,ioos:station:SCCF:12:1,2011-08-04T08:00:00Z,26.4966,-82.1479,2.5,-9999.0,1111122 
SCCF RECON,ioos:station:SCCF:12:1,2011-08-04T09:00:00Z,26.4966,-82.1479,2.53,-9999.0,1111122 
SCCF RECON,ioos:station:SCCF:12:1,2011-08-04T10:00:00Z,26.4966,-82.1479,2.48,-9999.0,1111122 
SCCF RECON,ioos:station:SCCF:12:1,2011-08-04T11:00:00Z,26.4966,-82.1479,2.4,-9999.0,1111122 
SCCF RECON,ioos:station:SCCF:12:1,2011-08-04T12:00:00Z,26.4966,-82.1479,2.289,-9999.0,1111122 
SCCF RECON,ioos:station:SCCF:12:1,2011-08-04T13:00:00Z,26.4966,-82.1479,2.155,-9999.0,1111122 
SCCF RECON,ioos:station:SCCF:12:1,2011-08-04T14:00:00Z,26.4966,-82.1479,2.053,-9999.0,1111122 
SCCF RECON,ioos:station:SCCF:12:1,2011-08-04T15:00:00Z,26.4966,-82.1479,1.98,-9999.0,1111122 
SCCF RECON,ioos:station:SCCF:12:1,2011-08-04T16:00:00Z,26.4966,-82.1479,1.951,-9999.0,1111122 
SCCF RECON,ioos:station:SCCF:12:1,2011-08-04T17:00:00Z,26.4966,-82.1479,2.002,-9999.0,1111122 
SCCF RECON,ioos:station:SCCF:12:1,2011-08-04T18:00:00Z,26.4966,-82.1479,2.129,-9999.0,1111122 
SCCF RECON,ioos:station:SCCF:12:1,2011-08-04T19:00:00Z,26.4966,-82.1479,2.256,-9999.0,1111122 
SCCF RECON,ioos:station:SCCF:12:1,2011-08-04T20:00:00Z,26.4966,-82.1479,2.32,-9999.0,1111122 
SCCF RECON,ioos:station:SCCF:12:1,2011-08-04T21:00:00Z,26.4966,-82.1479,2.347,-9999.0,1111122 
SCCF RECON,ioos:station:SCCF:12:1,2011-08-04T22:00:00Z,26.4966,-82.1479,2.33,-9999.0,1111122 
SCCF RECON,ioos:station:SCCF:12:1,2011-08-04T23:00:00Z,26.4966,-82.1479,2.31,-9999.0,1111122 
SCCF RECON,ioos:station:SCCF:12:1,2011-08-05T00:00:00Z,26.4966,-82.1479,2.25,-9999.0,1111122 
SCCF RECON,ioos:station:SCCF:12:1,2011-08-05T01:00:00Z,26.4966,-82.1479,2.18,-9999.0,1111122 
SCCF RECON,ioos:station:SCCF:12:1,2011-08-05T02:00:00Z,26.4966,-82.1479,2.12,-9999.0,1111122 
SCCF RECON,ioos:station:SCCF:12:1,2011-08-05T03:00:00Z,26.4966,-82.1479,2.05,-9999.0,1111122 
SCCF RECON,ioos:station:SCCF:12:1,2011-08-05T04:00:00Z,26.4966,-82.1479,2.04,-9999.0,1111122 
SCCF RECON,ioos:station:SCCF:12:1,2011-08-05T05:00:00Z,26.4966,-82.1479,2.08,-9999.0,1111122 
SCCF RECON,ioos:station:SCCF:12:1,2011-08-05T06:00:00Z,26.4966,-82.1479,2.2,-9999.0,1111122 
SCCF RECON,ioos:station:SCCF:12:1,2011-08-05T07:00:00Z,26.4966,-82.1479,2.36,-9999.0,1111122 
SCCF RECON,ioos:station:SCCF:12:1,2011-08-05T08:00:00Z,26.4966,-82.1479,2.47,-9999.0,1111122 
SCCF RECON,ioos:station:SCCF:12:1,2011-08-05T09:00:00Z,26.4966,-82.1479,2.51,-9999.0,1111122 
SCCF RECON,ioos:station:SCCF:12:1,2011-08-05T10:00:00Z,26.4966,-82.1479,2.49,-9999.0,1111122 
SCCF RECON,ioos:station:SCCF:12:1,2011-08-05T11:00:00Z,26.4966,-82.1479,2.44,-9999.0,1111122 
SCCF RECON,ioos:station:SCCF:12:1,2011-08-05T12:00:00Z,26.4966,-82.1479,2.36,-9999.0,1111122 
SCCF RECON,ioos:station:SCCF:12:1,2011-08-05T13:00:00Z,26.4966,-82.1479,2.256,-9999.0,1111122 
SCCF RECON,ioos:station:SCCF:12:1,2011-08-05T14:00:00Z,26.4966,-82.1479,2.13,-9999.0,1111122 
SCCF RECON,ioos:station:SCCF:12:1,2011-08-05T15:00:00Z,26.4966,-82.1479,2.03,-9999.0,1111122 
SCCF RECON,ioos:station:SCCF:12:1,2011-08-05T16:00:00Z,26.4966,-82.1479,1.941,-9999.0,1111122 
SCCF RECON,ioos:station:SCCF:12:1,2011-08-05T17:00:00Z,26.4966,-82.1479,1.883,-9999.0,1111122 
SCCF RECON,ioos:station:SCCF:12:1,2011-08-05T18:00:00Z,26.4966,-82.1479,1.889,-9999.0,1111122 
SCCF RECON,ioos:station:SCCF:12:1,2011-08-05T19:00:00Z,26.4966,-82.1479,1.993,-9999.0,1111122 
SCCF RECON,ioos:station:SCCF:12:1,2011-08-05T20:00:00Z,26.4966,-82.1479,2.128,-9999.0,1111122 
SCCF RECON,ioos:station:SCCF:12:1,2011-08-05T21:00:00Z,26.4966,-82.1479,2.224,-9999.0,1111122 
SCCF RECON,ioos:station:SCCF:12:1,2011-08-05T22:00:00Z,26.4966,-82.1479,2.269,-9999.0,1111122 
SCCF RECON,ioos:station:SCCF:12:1,2011-08-05T23:00:00Z,26.4966,-82.1479,2.28,-9999.0,1111122 
SCCF RECON,ioos:station:SCCF:12:1,2011-08-06T00:00:00Z,26.4966,-82.1479,2.284,-9999.0,1111122 
SCCF RECON,ioos:station:SCCF:12:1,2011-08-06T01:00:00Z,26.4966,-82.1479,2.278,-9999.0,1111122 
SCCF RECON,ioos:station:SCCF:12:1,2011-08-06T02:00:00Z,26.4966,-82.1479,2.213,-9999.0,1111122 
SCCF RECON,ioos:station:SCCF:12:1,2011-08-06T03:00:00Z,26.4966,-82.1479,2.18,-9999.0,1111122 
SCCF RECON,ioos:station:SCCF:12:1,2011-08-06T04:00:00Z,26.4966,-82.1479,2.172,-9999.0,1111122 
SCCF RECON,ioos:station:SCCF:12:1,2011-08-06T05:00:00Z,26.4966,-82.1479,2.157,-9999.0,1111122 
SCCF RECON,ioos:station:SCCF:12:1,2011-08-06T06:00:00Z,26.4966,-82.1479,2.181,-9999.0,1111122 
SCCF RECON,ioos:station:SCCF:12:1,2011-08-06T07:00:00Z,26.4966,-82.1479,2.27,-9999.0,1111122 
SCCF RECON,ioos:station:SCCF:12:1,2011-08-06T08:00:00Z,26.4966,-82.1479,2.37,-9999.0,1111122 
SCCF RECON,ioos:station:SCCF:12:1,2011-08-06T09:00:00Z,26.4966,-82.1479,2.46,-9999.0,1111122 
SCCF RECON,ioos:station:SCCF:12:1,2011-08-06T10:00:00Z,26.4966,-82.1479,2.498,-9999.0,1111122 
SCCF RECON,ioos:station:SCCF:12:1,2011-08-06T11:00:00Z,26.4966,-82.1479,2.53,-9999.0,1111122 
SCCF RECON,ioos:station:SCCF:12:1,2011-08-06T12:00:00Z,26.4966,-82.1479,2.48,-9999.0,1111122 
SCCF RECON,ioos:station:SCCF:12:1,2011-08-06T13:00:00Z,26.4966,-82.1479,2.386,-9999.0,1111122 
SCCF RECON,ioos:station:SCCF:12:1,2011-08-06T14:00:00Z,26.4966,-82.1479,2.262,-9999.0,1111122 
SCCF RECON,ioos:station:SCCF:12:1,2011-08-06T15:00:00Z,26.4966,-82.1479,2.15,-9999.0,1111122 
SCCF RECON,ioos:station:SCCF:12:1,2011-08-06T16:00:00Z,26.4966,-82.1479,2.042,-9999.0,1111122 
SCCF RECON,ioos:station:SCCF:12:1,2011-08-06T17:00:00Z,26.4966,-82.1479,1.939,-9999.0,1111122 
SCCF RECON,ioos:station:SCCF:12:1,2011-08-06T18:00:00Z,26.4966,-82.1479,1.863,-9999.0,1111122 
SCCF RECON,ioos:station:SCCF:12:1,2011-08-06T19:00:00Z,26.4966,-82.1479,1.84,-9999.0,1111122 
SCCF RECON,ioos:station:SCCF:12:1,2011-08-06T20:00:00Z,26.4966,-82.1479,1.9,-9999.0,1111122 
SCCF RECON,ioos:station:SCCF:12:1,2011-08-06T21:00:00Z,26.4966,-82.1479,2.01,-9999.0,1111122 
SCCF RECON,ioos:station:SCCF:12:1,2011-08-06T22:00:00Z,26.4966,-82.1479,2.11,-9999.0,1111122 
SCCF RECON,ioos:station:SCCF:12:1,2011-08-06T23:00:00Z,26.4966,-82.1479,2.179,-9999.0,1111122 
SCCF RECON,ioos:station:SCCF:12:1,2011-08-07T00:00:00Z,26.4966,-82.1479,2.24,-9999.0,1111122 
SCCF RECON,ioos:station:SCCF:12:1,2011-08-07T01:00:00Z,26.4966,-82.1479,2.265,-9999.0,1111122 
SCCF RECON,ioos:station:SCCF:12:1,2011-08-07T02:00:00Z,26.4966,-82.1479,2.258,-9999.0,1111122 
SCCF RECON,ioos:station:SCCF:12:1,2011-08-07T03:00:00Z,26.4966,-82.1479,2.212,-9999.0,1111122 
SCCF RECON,ioos:station:SCCF:12:1,2011-08-07T04:00:00Z,26.4966,-82.1479,2.18,-9999.0,1111122 
SCCF RECON,ioos:station:SCCF:12:1,2011-08-07T05:00:00Z,26.4966,-82.1479,2.19,-9999.0,1111122 
SCCF RECON,ioos:station:SCCF:12:1,2011-08-07T06:00:00Z,26.4966,-82.1479,2.2,-9999.0,1111122 
SCCF RECON,ioos:station:SCCF:12:1,2011-08-07T07:00:00Z,26.4966,-82.1479,2.231,-9999.0,1111122 
SCCF RECON,ioos:station:SCCF:12:1,2011-08-07T08:00:00Z,26.4966,-82.1479,2.28,-9999.0,1111122 
SCCF RECON,ioos:station:SCCF:12:1,2011-08-07T09:00:00Z,26.4966,-82.1479,2.35,-9999.0,1111122 
SCCF RECON,ioos:station:SCCF:12:1,2011-08-07T10:00:00Z,26.4966,-82.1479,2.45,-9999.0,1111122 
SCCF RECON,ioos:station:SCCF:12:1,2011-08-07T11:00:00Z,26.4966,-82.1479,2.502,-9999.0,1111122 
SCCF RECON,ioos:station:SCCF:12:1,2011-08-07T12:00:00Z,26.4966,-82.1479,2.508,-9999.0,1111122 
SCCF RECON,ioos:station:SCCF:12:1,2011-08-07T13:00:00Z,26.4966,-82.1479,2.461,-9999.0,1111122 
SCCF RECON,ioos:station:SCCF:12:1,2011-08-07T14:00:00Z,26.4966,-82.1479,2.37,-9999.0,1111122 
SCCF RECON,ioos:station:SCCF:12:1,2011-08-07T15:00:00Z,26.4966,-82.1479,2.259,-9999.0,1111122 
SCCF RECON,ioos:station:SCCF:12:1,2011-08-07T16:00:00Z,26.4966,-82.1479,2.131,-9999.0,1111122 
SCCF RECON,ioos:station:SCCF:12:1,2011-08-07T17:00:00Z,26.4966,-82.1479,2.021,-9999.0,1111122 
SCCF RECON,ioos:station:SCCF:12:1,2011-08-07T18:00:00Z,26.4966,-82.1479,1.913,-9999.0,1111122 
SCCF RECON,ioos:station:SCCF:12:1,2011-08-07T19:00:00Z,26.4966,-82.1479,1.826,-9999.0,1111122 
SCCF RECON,ioos:station:SCCF:12:1,2011-08-07T20:00:00Z,26.4966,-82.1479,1.777,-9999.0,1111122 
SCCF RECON,ioos:station:SCCF:12:1,2011-08-07T21:00:00Z,26.4966,-82.1479,1.821,-9999.0,1111122 
SCCF RECON,ioos:station:SCCF:12:1,2011-08-07T22:00:00Z,26.4966,-82.1479,1.94,-9999.0,1111122 
SCCF RECON,ioos:station:SCCF:12:1,2011-08-07T23:00:00Z,26.4966,-82.1479,2.05,-9999.0,1111122 
SCCF RECON,ioos:station:SCCF:12:1,2011-08-08T00:00:00Z,26.4966,-82.1479,2.13,-9999.0,1111122 
SCCF RECON,ioos:station:SCCF:12:1,2011-08-08T01:00:00Z,26.4966,-82.1479,2.212,-9999.0,1111122 
SCCF RECON,ioos:station:SCCF:12:1,2011-08-08T02:00:00Z,26.4966,-82.1479,2.25,-9999.0,1111122 
SCCF RECON,ioos:station:SCCF:12:1,2011-08-08T03:00:00Z,26.4966,-82.1479,2.25,-9999.0,1111122 
SCCF RECON,ioos:station:SCCF:12:1,2011-08-08T04:00:00Z,26.4966,-82.1479,2.21,-9999.0,1111122 
SCCF RECON,ioos:station:SCCF:12:1,2011-08-08T05:00:00Z,26.4966,-82.1479,2.21,-9999.0,1111122 
SCCF RECON,ioos:station:SCCF:12:1,2011-08-08T06:00:00Z,26.4966,-82.1479,2.22,-9999.0,1111122 
SCCF RECON,ioos:station:SCCF:12:1,2011-08-08T07:00:00Z,26.4966,-82.1479,2.25,-9999.0,1111122 
SCCF RECON,ioos:station:SCCF:12:1,2011-08-08T08:00:00Z,26.4966,-82.1479,2.304,-9999.0,1111122 
SCCF RECON,ioos:station:SCCF:12:1,2011-08-08T09:00:00Z,26.4966,-82.1479,2.37,-9999.0,1111122 
SCCF RECON,ioos:station:SCCF:12:1,2011-08-08T10:00:00Z,26.4966,-82.1479,2.47,-9999.0,1111122 
SCCF RECON,ioos:station:SCCF:12:1,2011-08-08T11:00:00Z,26.4966,-82.1479,2.54,-9999.0,1111122 
SCCF RECON,ioos:station:SCCF:12:1,2011-08-08T12:00:00Z,26.4966,-82.1479,2.53,-9999.0,1111122 
SCCF RECON,ioos:station:SCCF:12:1,2011-08-08T13:00:00Z,26.4966,-82.1479,2.522,-9999.0,1111122 
SCCF RECON,ioos:station:SCCF:12:1,2011-08-08T14:00:00Z,26.4966,-82.1479,2.522,-9999.0,1111122 
SCCF RECON,ioos:station:SCCF:12:1,2011-08-08T15:00:00Z,26.4966,-82.1479,2.45,-9999.0,1111122 
SCCF RECON,ioos:station:SCCF:12:1,2011-08-08T16:00:00Z,26.4966,-82.1479,2.33,-9999.0,1111122 
SCCF RECON,ioos:station:SCCF:12:1,2011-08-08T17:00:00Z,26.4966,-82.1479,2.18,-9999.0,1111122 
SCCF RECON,ioos:station:SCCF:12:1,2011-08-08T18:00:00Z,26.4966,-82.1479,2.05,-9999.0,1111122 
SCCF RECON,ioos:station:SCCF:12:1,2011-08-08T19:00:00Z,26.4966,-82.1479,1.91,-9999.0,1111122 
SCCF RECON,ioos:station:SCCF:12:1,2011-08-08T20:00:00Z,26.4966,-82.1479,1.83,-9999.0,1111122 
SCCF RECON,ioos:station:SCCF:12:1,2011-08-08T21:00:00Z,26.4966,-82.1479,1.839,-9999.0,1111122 
SCCF RECON,ioos:station:SCCF:12:1,2011-08-08T22:00:00Z,26.4966,-82.1479,1.83,-9999.0,1111122 
SCCF RECON,ioos:station:SCCF:12:1,2011-08-08T23:00:00Z,26.4966,-82.1479,1.89,-9999.0,1111122 
SCCF RECON,ioos:station:SCCF:12:1,2011-08-09T00:00:00Z,26.4966,-82.1479,2.03,-9999.0,1111122 
SCCF RECON,ioos:station:SCCF:12:1,2011-08-09T01:00:00Z,26.4966,-82.1479,2.12,-9999.0,1111122 
SCCF RECON,ioos:station:SCCF:12:1,2011-08-09T02:00:00Z,26.4966,-82.1479,2.19,-9999.0,1111122 
SCCF RECON,ioos:station:SCCF:12:1,2011-08-09T03:00:00Z,26.4966,-82.1479,2.24,-9999.0,1111122 
SCCF RECON,ioos:station:SCCF:12:1,2011-08-09T04:00:00Z,26.4966,-82.1479,2.26,-9999.0,1111122 
SCCF RECON,ioos:station:SCCF:12:1,2011-08-09T05:00:00Z,26.4966,-82.1479,2.28,-9999.0,1111122 
SCCF RECON,ioos:station:SCCF:12:1,2011-08-09T06:00:00Z,26.4966,-82.1479,2.28,-9999.0,1111122 
SCCF RECON,ioos:station:SCCF:12:1,2011-08-09T07:00:00Z,26.4966,-82.1479,2.27,-9999.0,1111122 
SCCF RECON,ioos:station:SCCF:12:1,2011-08-09T08:00:00Z,26.4966,-82.1479,2.24,-9999.0,1111122 
SCCF RECON,ioos:station:SCCF:12:1,2011-08-09T09:00:00Z,26.4966,-82.1479,2.26,-9999.0,1111122 
SCCF RECON,ioos:station:SCCF:12:1,2011-08-09T10:00:00Z,26.4966,-82.1479,2.333,-9999.0,1111122 
SCCF RECON,ioos:station:SCCF:12:1,2011-08-09T11:00:00Z,26.4966,-82.1479,2.41,-9999.0,1111122 
SCCF RECON,ioos:station:SCCF:12:1,2011-08-09T12:00:00Z,26.4966,-82.1479,2.47,-9999.0,1111122 
SCCF RECON,ioos:station:SCCF:12:1,2011-08-09T13:00:00Z,26.4966,-82.1479,2.53,-9999.0,1111122 
SCCF RECON,ioos:station:SCCF:12:1,2011-08-09T14:00:00Z,26.4966,-82.1479,2.58,-9999.0,1111122 
SCCF RECON,ioos:station:SCCF:12:1,2011-08-09T15:00:00Z,26.4966,-82.1479,2.57,-9999.0,1111122 
SCCF RECON,ioos:station:SCCF:12:1,2011-08-09T16:00:00Z,26.4966,-82.1479,2.496,-9999.0,1111122 
SCCF RECON,ioos:station:SCCF:12:1,2011-08-09T17:00:00Z,26.4966,-82.1479,2.379,-9999.0,1111122 
SCCF RECON,ioos:station:SCCF:12:1,2011-08-09T18:00:00Z,26.4966,-82.1479,2.268,-9999.0,1111122 
SCCF RECON,ioos:station:SCCF:12:1,2011-08-09T19:00:00Z,26.4966,-82.1479,2.117,-9999.0,1111122 
SCCF RECON,ioos:station:SCCF:12:1,2011-08-09T20:00:00Z,26.4966,-82.1479,2.009,-9999.0,1111122 
SCCF RECON,ioos:station:SCCF:12:1,2011-08-09T21:00:00Z,26.4966,-82.1479,1.94,-9999.0,1111122 
SCCF RECON,ioos:station:SCCF:12:1,2011-08-09T22:00:00Z,26.4966,-82.1479,1.863,-9999.0,1111122 
SCCF RECON,ioos:station:SCCF:12:1,2011-08-09T23:00:00Z,26.4966,-82.1479,1.822,-9999.0,1111122 
SCCF RECON,ioos:station:SCCF:12:1,2011-08-10T00:00:00Z,26.4966,-82.1479,1.896,-9999.0,1111122 
SCCF RECON,ioos:station:SCCF:12:1,2011-08-10T01:00:00Z,26.4966,-82.1479,1.969,-9999.0,1111122 
SCCF RECON,ioos:station:SCCF:12:1,2011-08-10T02:00:00Z,26.4966,-82.1479,2.06,-9999.0,1111122 
SCCF RECON,ioos:station:SCCF:12:1,2011-08-10T03:00:00Z,26.4966,-82.1479,2.181,-9999.0,1111122 
SCCF RECON,ioos:station:SCCF:12:1,2011-08-10T04:00:00Z,26.4966,-82.1479,2.29,-9999.0,1111122 
SCCF RECON,ioos:station:SCCF:12:1,2011-08-10T05:00:00Z,26.4966,-82.1479,2.35,-9999.0,1111122 
SCCF RECON,ioos:station:SCCF:12:1,2011-08-10T06:00:00Z,26.4966,-82.1479,2.33,-9999.0,1111122 
SCCF RECON,ioos:station:SCCF:12:1,2011-08-10T07:00:00Z,26.4966,-82.1479,2.26,-9999.0,1111122 
SCCF RECON,ioos:station:SCCF:12:1,2011-08-10T08:00:00Z,26.4966,-82.1479,2.161,-9999.0,1111122 
SCCF RECON,ioos:station:SCCF:12:1,2011-08-10T09:00:00Z,26.4966,-82.1479,2.13,-9999.0,1111122 
SCCF RECON,ioos:station:SCCF:12:1,2011-08-10T10:00:00Z,26.4966,-82.1479,2.19,-9999.0,1111122 
SCCF RECON,ioos:station:SCCF:12:1,2011-08-10T11:00:00Z,26.4966,-82.1479,2.32,-9999.0,1111122 
SCCF RECON,ioos:station:SCCF:12:1,2011-08-10T12:00:00Z,26.4966,-82.1479,2.44,-9999.0,1111122 
SCCF RECON,ioos:station:SCCF:12:1,2011-08-10T13:00:00Z,26.4966,-82.1479,2.545,-9999.0,1111122 
SCCF RECON,ioos:station:SCCF:12:1,2011-08-10T14:00:00Z,26.4966,-82.1479,2.584,-9999.0,1111122 
SCCF RECON,ioos:station:SCCF:12:1,2011-08-10T15:00:00Z,26.4966,-82.1479,2.604,-9999.0,1111122 
SCCF RECON,ioos:station:SCCF:12:1,2011-08-10T16:00:00Z,26.4966,-82.1479,2.56,-9999.0,1111122 
SCCF RECON,ioos:station:SCCF:12:1,2011-08-10T17:00:00Z,26.4966,-82.1479,2.48,-9999.0,1111122 
SCCF RECON,ioos:station:SCCF:12:1,2011-08-10T18:00:00Z,26.4966,-82.1479,2.371,-9999.0,1111122 
SCCF RECON,ioos:station:SCCF:12:1,2011-08-10T19:00:00Z,26.4966,-82.1479,2.187,-9999.0,1111122 
SCCF RECON,ioos:station:SCCF:12:1,2011-08-10T20:00:00Z,26.4966,-82.1479,2.066,-9999.0,1111122 
SCCF RECON,ioos:station:SCCF:12:1,2011-08-10T21:00:00Z,26.4966,-82.1479,1.96,-9999.0,1111122 
SCCF RECON,ioos:station:SCCF:12:1,2011-08-10T22:00:00Z,26.4966,-82.1479,1.872,-9999.0,1111122 
SCCF RECON,ioos:station:SCCF:12:1,2011-08-10T23:00:00Z,26.4966,-82.1479,1.789,-9999.0,1111122 
SCCF RECON,ioos:station:SCCF:12:1,2011-08-11T00:00:00Z,26.4966,-82.1479,1.753,-9999.0,1111122 
SCCF RECON,ioos:station:SCCF:12:1,2011-08-11T01:00:00Z,26.4966,-82.1479,1.79,-9999.0,1111122 
SCCF RECON,ioos:station:SCCF:12:1,2011-08-11T02:00:00Z,26.4966,-82.1479,1.92,-9999.0,1111122 
SCCF RECON,ioos:station:SCCF:12:1,2011-08-11T03:00:00Z,26.4966,-82.1479,2.08,-9999.0,1111122 
SCCF RECON,ioos:station:SCCF:12:1,2011-08-11T04:00:00Z,26.4966,-82.1479,2.219,-9999.0,1111122 
SCCF RECON,ioos:station:SCCF:12:1,2011-08-11T05:00:00Z,26.4966,-82.1479,2.3,-9999.0,1111122 
SCCF RECON,ioos:station:SCCF:12:1,2011-08-11T06:00:00Z,26.4966,-82.1479,2.29,-9999.0,1111122 
SCCF RECON,ioos:station:SCCF:12:1,2011-08-11T07:00:00Z,26.4966,-82.1479,2.208,-9999.0,1111122 
SCCF RECON,ioos:station:SCCF:12:1,2011-08-11T08:00:00Z,26.4966,-82.1479,2.12,-9999.0,1111122 
SCCF RECON,ioos:station:SCCF:12:1,2011-08-11T09:00:00Z,26.4966,-82.1479,2.09,-9999.0,1111122 
SCCF RECON,ioos:station:SCCF:12:1,2011-08-11T10:00:00Z,26.4966,-82.1479,2.13,-9999.0,1111122 
SCCF RECON,ioos:station:SCCF:12:1,2011-08-11T11:00:00Z,26.4966,-82.1479,2.23,-9999.0,1111122 
SCCF RECON,ioos:station:SCCF:12:1,2011-08-11T12:00:00Z,26.4966,-82.1479,2.34,-9999.0,1111122 